Weather History for Grand Marais Airport, MN

Change the Weather History Date:

Friday, March 22, 2013

  Actual Average Record
Temperature  
Mean Temperature 20 °F -  
Max Temperature 30 °F 32 °F 59 °F (2012)
Min Temperature 10 °F 16 °F 0 °F (2014)
Degree Days  
Heating Degree Days 45    
Moisture  
Dew Point 12 °F    
Average Humidity 74    
Maximum Humidity 86    
Minimum Humidity 51    
Precipitation  
Precipitation 0.00 in - - ()
Sea Level Pressure  
Sea Level Pressure 30.00 in    
Wind  
Wind Speed 7 mph (North)    
Max Wind Speed 13 mph    
Max Gust Speed -    
Visibility 10 miles    
Events      
Averages and records for this station are not official NWS values.
T = Trace of Precipitation, MM = Missing Value Source: NWS Daily Summary

Daily Weather History Graph

Daily Weather History Graph

Search for Another Location

Airport:

Trip Planner

Search our weather history database for the weather conditions in past years. The results will help you decide how hot, cold, wet, or windy it might be!

Date:

Astronomy

Mar. 22, 2013 Rise Set
Actual Time 6:59 AM CDT 7:17 PM CDT
Civil Twilight 6:28 AM CDT 7:48 PM CDT
Nautical Twilight 5:52 AM CDT 8:25 PM CDT
Astronomical Twilight 5:14 AM CDT 9:03 PM CDT
Moon 2:27 PM CDT (3/22) 4:18 AM CDT (3/22)
Length of Visible Light 13h 19m
Length of Day
12h 17m
Waxing Gibbous, 77% of the Moon is Illuminated
Mar 22
Waxing Gibbous
Mar 27
Full
Apr 2
Last Quarter
Apr 10
New
Apr 18
First Quarter

Hourly Weather History & Observations

Time (CDT) Temp. Windchill Dew Point Humidity Pressure Visibility Wind Dir Wind Speed Gust Speed Precip Events Conditions
12:13 AM 12.2 °F -0.2 °F 1.4 °F 62% 29.97 in 10.0 mi NNW 9.2 mph - N/A   Clear
12:33 AM 12.2 °F -0.2 °F 1.4 °F 62% 29.97 in 10.0 mi NNW 9.2 mph - N/A   Clear
12:54 AM 12.2 °F -0.2 °F 3.2 °F 67% 29.97 in 10.0 mi NNW 9.2 mph - N/A   Clear
1:13 AM 12.2 °F -1.0 °F 1.4 °F 62% 29.97 in 10.0 mi NNW 10.4 mph - N/A   Clear
1:34 AM 12.2 °F -1.0 °F 3.2 °F 67% 29.97 in 10.0 mi NNW 10.4 mph - N/A   Clear
1:53 AM 12.2 °F 0.7 °F 3.2 °F 67% 29.97 in 10.0 mi NNW 8.1 mph - N/A   Clear
2:14 AM 12.2 °F 2.9 °F 5.0 °F 73% 29.98 in 10.0 mi NNW 5.8 mph - N/A   Clear
2:33 AM 15.8 °F - 6.8 °F 68% 29.98 in 10.0 mi Calm Calm - N/A   Mostly Cloudy
2:53 AM 15.8 °F 10.2 °F 6.8 °F 68% 29.98 in 10.0 mi NW 3.5 mph - N/A   Overcast
3:14 AM 14.0 °F - 6.8 °F 73% 29.98 in 10.0 mi Calm Calm - N/A   Mostly Cloudy
3:34 AM 12.2 °F 2.9 °F 5.0 °F 73% 29.98 in 10.0 mi NNW 5.8 mph - N/A   Clear
3:53 AM 10.4 °F -0.4 °F 5.0 °F 79% 29.98 in 10.0 mi NNW 6.9 mph - N/A   Clear
4:14 AM 12.2 °F 1.7 °F 6.8 °F 79% 29.97 in 10.0 mi NNW 6.9 mph - N/A   Clear
4:33 AM 12.2 °F -0.2 °F 6.8 °F 79% 29.97 in 10.0 mi North 9.2 mph - N/A   Clear
4:53 AM 12.2 °F 0.7 °F 8.6 °F 85% 29.97 in 10.0 mi NNW 8.1 mph - N/A   Clear
5:14 AM 14.0 °F 2.9 °F 8.6 °F 79% 29.97 in 10.0 mi North 8.1 mph - N/A   Mostly Cloudy
5:33 AM 15.8 °F 3.4 °F 10.4 °F 79% 29.97 in 10.0 mi NNW 10.4 mph - N/A   Overcast
5:53 AM 15.8 °F 5.1 °F 10.4 °F 79% 29.98 in 10.0 mi North 8.1 mph - N/A   Overcast
6:14 AM 15.8 °F 7.2 °F 10.4 °F 79% 29.98 in 10.0 mi North 5.8 mph - N/A   Mostly Cloudy
6:33 AM 15.8 °F 8.6 °F 10.4 °F 79% 29.99 in 10.0 mi NNW 4.6 mph - N/A   Mostly Cloudy
6:54 AM 15.8 °F 5.1 °F 12.2 °F 86% 29.99 in 10.0 mi NNW 8.1 mph - N/A   Overcast
7:13 AM 15.8 °F 5.1 °F 12.2 °F 86% 29.99 in 10.0 mi North 8.1 mph - N/A   Overcast
7:34 AM 15.8 °F 3.4 °F 12.2 °F 86% 29.99 in 10.0 mi North 10.4 mph - N/A   Overcast
7:53 AM 15.8 °F 4.2 °F 12.2 °F 86% 30.00 in 10.0 mi North 9.2 mph - N/A   Overcast
8:13 AM 17.6 °F 5.0 °F 12.2 °F 79% 30.00 in 10.0 mi North 11.5 mph - N/A   Overcast
8:34 AM 17.6 °F 5.7 °F 12.2 °F 79% 30.00 in 10.0 mi North 10.4 mph - N/A   Overcast
8:54 AM 17.6 °F 7.3 °F 12.2 °F 79% 30.00 in 10.0 mi NNW 8.1 mph - N/A   Overcast
9:13 AM 17.6 °F 5.7 °F 14.0 °F 86% 30.00 in 10.0 mi NNW 10.4 mph - N/A   Overcast
9:34 AM 19.4 °F 6.6 °F 12.2 °F 74% 30.00 in 10.0 mi North 12.7 mph - N/A   Overcast
9:53 AM 19.4 °F 9.5 °F 14.0 °F 80% 30.00 in 10.0 mi North 8.1 mph - N/A   Overcast
10:14 AM 21.2 °F 12.6 °F 14.0 °F 74% 30.00 in 10.0 mi North 6.9 mph - N/A   Overcast
10:34 AM 21.2 °F 12.6 °F 14.0 °F 74% 30.00 in 10.0 mi NNW 6.9 mph - N/A   Overcast
10:53 AM 23.0 °F 14.7 °F 14.0 °F 68% 30.00 in 10.0 mi NNW 6.9 mph - N/A   Overcast
11:14 AM 24.8 °F 20.5 °F 14.0 °F 64% 30.00 in 10.0 mi North 3.5 mph - N/A   Overcast
11:34 AM 24.8 °F - 14.0 °F 64% 29.99 in 10.0 mi Calm Calm - N/A   Overcast
11:53 AM 26.6 °F 21.2 °F 14.0 °F 59% 29.99 in 10.0 mi WNW 4.6 mph - N/A   Overcast
12:13 PM 26.6 °F 22.6 °F 14.0 °F 59% 29.99 in 10.0 mi North 3.5 mph - N/A   Overcast
12:34 PM 28.4 °F 22.2 °F 14.0 °F 55% 29.99 in 10.0 mi WNW 5.8 mph - N/A   Overcast
12:53 PM 28.4 °F 21.2 °F 14.0 °F 55% 29.99 in 10.0 mi NNW 6.9 mph - N/A   Overcast
1:13 PM 28.4 °F - 14.0 °F 55% 29.99 in 10.0 mi Calm Calm - N/A   Overcast
1:34 PM 28.4 °F 23.3 °F 14.0 °F 55% 29.98 in 10.0 mi NE 4.6 mph - N/A   Mostly Cloudy
1:53 PM 30.2 °F 22.6 °F 14.0 °F 51% 29.98 in 10.0 mi NE 8.1 mph - N/A   Scattered Clouds
2:13 PM 28.4 °F 21.2 °F 17.6 °F 64% 29.98 in 10.0 mi ESE 6.9 mph - N/A   Mostly Cloudy
2:34 PM 28.4 °F 21.2 °F 17.6 °F 64% 29.98 in 10.0 mi SE 6.9 mph - N/A   Mostly Cloudy
2:53 PM 28.4 °F 23.3 °F 17.6 °F 64% 29.98 in 10.0 mi SE 4.6 mph - N/A   Mostly Cloudy
3:13 PM 28.4 °F 20.4 °F 17.6 °F 64% 29.98 in 10.0 mi SSE 8.1 mph - N/A   Scattered Clouds
3:33 PM 26.6 °F 18.2 °F 17.6 °F 69% 29.98 in 10.0 mi SSE 8.1 mph - N/A   Scattered Clouds
3:54 PM 28.4 °F 20.4 °F 17.6 °F 64% 29.98 in 10.0 mi South 8.1 mph - N/A   Clear
4:13 PM 26.6 °F 21.2 °F 17.6 °F 69% 29.98 in 10.0 mi South 4.6 mph - N/A   Scattered Clouds
4:33 PM 26.6 °F 21.2 °F 17.6 °F 69% 29.98 in 10.0 mi SSE 4.6 mph - N/A   Clear
4:54 PM 26.6 °F 19.1 °F 17.6 °F 69% 29.99 in 10.0 mi South 6.9 mph - N/A   Clear
5:14 PM 26.6 °F 19.1 °F 17.6 °F 69% 29.99 in 10.0 mi South 6.9 mph - N/A   Clear
5:33 PM 24.8 °F 16.9 °F 17.6 °F 74% 30.00 in 10.0 mi SSE 6.9 mph - N/A   Scattered Clouds
5:54 PM 24.8 °F 16.9 °F 17.6 °F 74% 30.00 in 10.0 mi South 6.9 mph - N/A   Scattered Clouds
6:14 PM 24.8 °F 19.1 °F 17.6 °F 74% 30.00 in 10.0 mi SSW 4.6 mph - N/A   Scattered Clouds
6:34 PM 23.0 °F 15.8 °F 17.6 °F 80% 30.01 in 10.0 mi South 5.8 mph - N/A   Mostly Cloudy
6:53 PM 21.2 °F 16.4 °F 15.8 °F 80% 30.01 in 10.0 mi South 3.5 mph - N/A   Scattered Clouds
7:14 PM 21.2 °F 16.4 °F 15.8 °F 80% 30.02 in 10.0 mi South 3.5 mph - N/A   Scattered Clouds
7:33 PM 19.4 °F - 15.8 °F 86% 30.02 in 10.0 mi Calm Calm - N/A   Scattered Clouds
7:54 PM 19.4 °F - 15.8 °F 86% 30.02 in 10.0 mi Calm Calm - N/A   Clear
8:14 PM 17.6 °F - 14.0 °F 86% 30.02 in 10.0 mi Calm Calm - N/A   Scattered Clouds
8:33 PM 19.4 °F - 15.8 °F 86% 30.03 in 10.0 mi Calm Calm - N/A   Mostly Cloudy
8:53 PM 19.4 °F - 14.0 °F 80% 30.03 in 10.0 mi Calm Calm - N/A   Mostly Cloudy
9:13 PM 17.6 °F 10.7 °F 12.2 °F 79% 30.03 in 10.0 mi North 4.6 mph - N/A   Overcast
9:33 PM 15.8 °F 8.6 °F 12.2 °F 86% 30.03 in 10.0 mi North 4.6 mph - N/A   Overcast
9:54 PM 17.6 °F 10.7 °F 12.2 °F 79% 30.04 in 10.0 mi North 4.6 mph - N/A   Overcast
10:14 PM 15.8 °F 7.2 °F 12.2 °F 86% 30.04 in 10.0 mi North 5.8 mph - N/A   Scattered Clouds
10:34 PM 15.8 °F 8.6 °F 12.2 °F 86% 30.04 in 10.0 mi North 4.6 mph - N/A   Clear
10:54 PM 15.8 °F 8.6 °F 12.2 °F 86% 30.04 in 10.0 mi North 4.6 mph - N/A   Clear
11:13 PM 15.8 °F 10.2 °F 10.4 °F 79% 30.04 in 10.0 mi East 3.5 mph - N/A   Clear
11:34 PM 15.8 °F 8.6 °F 10.4 °F 79% 30.04 in 10.0 mi NE 4.6 mph - N/A   Clear
11:54 PM 15.8 °F 10.2 °F 12.2 °F 86% 30.04 in 10.0 mi NE 3.5 mph - N/A   Clear